Time,TemperatureF,DewpointF,PressureIn,WindDirection,WindDirectionDegrees,WindSpeedMPH,WindSpeedGustMPH,Humidity,HourlyPrecipIn,Conditions,Clouds,dailyrainin,SoftwareType,DateUTC
2013-10-03 00:13:00,30.7,30.2,29.65,South,180,2.2,-999.0,98,-99.99,,,0.00,Acu-Link.com,2013-10-03 08:13:00,
2013-10-03 00:28:00,31.3,30.8,29.65,SSW,202,1.7,-999.0,98,-99.99,,,0.00,Acu-Link.com,2013-10-03 08:28:00,
2013-10-03 00:45:00,30.7,30.2,29.65,ENE,67,1.7,-999.0,98,-99.99,,,0.00,Acu-Link.com,2013-10-03 08:45:00,
2013-10-03 01:00:00,30.2,29.7,29.65,NW,315,0.0,-999.0,98,-99.99,,,0.00,Acu-Link.com,2013-10-03 09:00:00,
2013-10-03 01:16:00,29.7,29.2,29.65,East,90,0.0,-999.0,98,-99.99,,,0.00,Acu-Link.com,2013-10-03 09:16:00,
2013-10-03 01:31:00,28.8,28.3,29.65,SSW,202,0.0,-999.0,98,-99.99,,,0.00,Acu-Link.com,2013-10-03 09:31:00,
2013-10-03 01:47:00,27.0,26.5,29.66,NE,45,2.7,-999.0,98,-99.99,,,0.00,Acu-Link.com,2013-10-03 09:47:00,
2013-10-03 02:02:00,26.4,25.9,29.65,NW,315,0.0,-999.0,98,-99.99,,,0.00,Acu-Link.com,2013-10-03 10:02:00,
2013-10-03 02:17:00,26.6,26.1,29.65,SSW,202,1.7,-999.0,98,-99.99,,,0.00,Acu-Link.com,2013-10-03 10:17:00,
2013-10-03 02:32:00,27.0,26.5,29.65,SE,135,0.0,-999.0,98,-99.99,,,0.00,Acu-Link.com,2013-10-03 10:32:00,
2013-10-03 02:48:00,28.2,27.7,29.65,ESE,112,1.7,-999.0,98,-99.99,,,0.00,Acu-Link.com,2013-10-03 10:48:00,
2013-10-03 03:03:00,27.7,27.2,29.65,WSW,247,3.2,-999.0,98,-99.99,,,0.00,Acu-Link.com,2013-10-03 11:03:00,
2013-10-03 03:18:00,28.0,27.5,29.65,SW,225,3.2,-999.0,98,-99.99,,,0.00,Acu-Link.com,2013-10-03 11:18:00,
2013-10-03 03:34:00,28.4,27.9,29.64,NNW,337,2.7,-999.0,98,-99.99,,,0.00,Acu-Link.com,2013-10-03 11:34:00,
2013-10-03 03:49:00,28.0,27.5,29.64,NNE,22,2.7,-999.0,98,-99.99,,,0.00,Acu-Link.com,2013-10-03 11:49:00,
2013-10-03 04:04:00,27.7,27.2,29.63,NNE,22,2.7,-999.0,98,-99.99,,,0.00,Acu-Link.com,2013-10-03 12:04:00,
2013-10-03 04:19:00,27.9,27.4,29.62,North,0,2.2,-999.0,98,-99.99,,,0.00,Acu-Link.com,2013-10-03 12:19:00,
2013-10-03 04:35:00,27.5,27.0,29.62,North,0,0.0,-999.0,98,-99.99,,,0.00,Acu-Link.com,2013-10-03 12:35:00,
2013-10-03 04:50:00,27.9,27.4,29.62,WNW,292,0.0,-999.0,98,-99.99,,,0.00,Acu-Link.com,2013-10-03 12:50:00,
2013-10-03 05:20:00,27.9,27.4,29.63,SW,225,2.7,-999.0,98,-99.99,,,0.00,Acu-Link.com,2013-10-03 13:20:00,
2013-10-03 05:35:00,27.5,27.0,29.62,WSW,247,0.0,-999.0,98,-99.99,,,0.00,Acu-Link.com,2013-10-03 13:35:00,
2013-10-03 05:51:00,27.5,27.0,29.61,North,0,0.0,-999.0,98,-99.99,,,0.00,Acu-Link.com,2013-10-03 13:51:00,
2013-10-03 06:06:00,27.5,27.0,29.61,North,0,0.0,-999.0,98,-99.99,,,0.00,Acu-Link.com,2013-10-03 14:06:00,
2013-10-03 06:21:00,27.3,26.8,29.61,North,0,0.0,-999.0,98,-99.99,,,0.00,Acu-Link.com,2013-10-03 14:21:00,
2013-10-03 06:37:00,27.1,26.6,29.61,ENE,67,0.0,-999.0,98,-99.99,,,0.00,Acu-Link.com,2013-10-03 14:37:00,
2013-10-03 06:52:00,27.1,26.6,29.60,NE,45,2.2,-999.0,98,-99.99,,,0.00,Acu-Link.com,2013-10-03 14:52:00,
2013-10-03 07:07:00,26.8,26.3,29.60,NE,45,0.0,-999.0,98,-99.99,,,0.00,Acu-Link.com,2013-10-03 15:07:00,
2013-10-03 07:22:00,26.6,26.1,29.60,North,0,0.0,-999.0,98,-99.99,,,0.00,Acu-Link.com,2013-10-03 15:22:00,
2013-10-03 07:37:00,26.2,25.7,29.59,SSE,157,0.0,-999.0,98,-99.99,,,0.00,Acu-Link.com,2013-10-03 15:37:00,
2013-10-03 07:53:00,25.7,25.2,29.58,SE,135,0.0,-999.0,98,-99.99,,,0.00,Acu-Link.com,2013-10-03 15:53:00,
2013-10-03 08:08:00,26.1,25.6,29.59,SSW,202,0.0,-999.0,98,-99.99,,,0.00,Acu-Link.com,2013-10-03 16:08:00,
2013-10-03 08:23:00,26.1,25.6,29.59,SSW,202,0.0,-999.0,98,-99.99,,,0.00,Acu-Link.com,2013-10-03 16:23:00,
2013-10-03 08:38:00,27.7,27.2,29.58,SE,135,2.2,-999.0,98,-99.99,,,0.00,Acu-Link.com,2013-10-03 16:38:00,
2013-10-03 08:54:00,28.6,28.1,29.58,NNE,22,1.7,-999.0,98,-99.99,,,0.00,Acu-Link.com,2013-10-03 16:54:00,
2013-10-03 09:09:00,29.1,28.6,29.57,NNE,22,2.7,-999.0,98,-99.99,,,0.00,Acu-Link.com,2013-10-03 17:09:00,
2013-10-03 09:24:00,29.3,28.8,29.58,NNW,337,3.7,-999.0,98,-99.99,,,0.00,Acu-Link.com,2013-10-03 17:24:00,
2013-10-03 09:39:00,29.5,29.0,29.57,NNW,337,3.2,-999.0,98,-99.99,,,0.00,Acu-Link.com,2013-10-03 17:39:00,
2013-10-03 09:54:00,30.2,29.7,29.57,NNW,337,2.7,-999.0,98,-99.99,,,0.00,Acu-Link.com,2013-10-03 17:54:00,
2013-10-03 10:10:00,31.1,30.6,29.56,North,0,1.7,-999.0,98,-99.99,,,0.00,Acu-Link.com,2013-10-03 18:10:00,
2013-10-03 10:25:00,32.2,31.7,29.57,North,0,0.0,-999.0,98,-99.99,,,0.00,Acu-Link.com,2013-10-03 18:25:00,
2013-10-03 10:40:00,33.3,32.8,29.56,South,180,0.0,-999.0,98,-99.99,,,0.00,Acu-Link.com,2013-10-03 18:40:00,
2013-10-03 10:55:00,35.4,34.4,29.56,NE,45,0.0,-999.0,96,-99.99,,,0.00,Acu-Link.com,2013-10-03 18:55:00,
2013-10-03 11:11:00,38.1,35.7,29.54,NNE,22,2.7,-999.0,91,-99.99,,,0.00,Acu-Link.com,2013-10-03 19:11:00,
2013-10-03 11:26:00,39.9,37.5,29.53,NNE,22,2.2,-999.0,91,-99.99,,,0.00,Acu-Link.com,2013-10-03 19:26:00,
2013-10-03 11:41:00,42.1,38.2,29.52,East,90,0.0,-999.0,86,-99.99,,,0.00,Acu-Link.com,2013-10-03 19:41:00,
2013-10-03 11:56:00,42.3,37.8,29.51,East,90,0.0,-999.0,84,-99.99,,,0.00,Acu-Link.com,2013-10-03 19:56:00,
2013-10-03 12:12:00,43.3,38.5,29.51,South,180,0.0,-999.0,83,-99.99,,,0.00,Acu-Link.com,2013-10-03 20:12:00,
2013-10-03 12:27:00,44.8,38.7,29.52,WNW,292,0.0,-999.0,79,-99.99,,,0.00,Acu-Link.com,2013-10-03 20:27:00,
2013-10-03 12:42:00,46.6,39.1,29.52,NNE,22,2.7,-999.0,75,-99.99,,,0.00,Acu-Link.com,2013-10-03 20:42:00,
2013-10-03 12:57:00,48.0,38.3,29.51,North,0,6.3,-999.0,69,-99.99,,,0.00,Acu-Link.com,2013-10-03 20:57:00,
2013-10-03 13:13:00,48.6,37.8,29.51,West,270,3.7,-999.0,66,-99.99,,,0.00,Acu-Link.com,2013-10-03 21:13:00,
2013-10-03 13:28:00,49.1,37.5,29.51,ESE,112,2.2,-999.0,64,-99.99,,,0.00,Acu-Link.com,2013-10-03 21:28:00,
2013-10-03 13:43:00,50.4,38.7,29.50,ENE,67,1.7,-999.0,64,-99.99,,,0.00,Acu-Link.com,2013-10-03 21:43:00,
2013-10-03 13:59:00,50.5,38.0,29.50,South,180,2.7,-999.0,62,-99.99,,,0.00,Acu-Link.com,2013-10-03 21:59:00,
2013-10-03 14:14:00,50.4,37.9,29.50,SSW,202,2.2,-999.0,62,-99.99,,,0.00,Acu-Link.com,2013-10-03 22:14:00,
2013-10-03 14:29:00,49.6,37.5,29.49,SSW,202,3.2,-999.0,63,-99.99,,,0.00,Acu-Link.com,2013-10-03 22:29:00,
2013-10-03 14:45:00,49.8,38.5,29.49,SSW,202,6.3,-999.0,65,-99.99,,,0.00,Acu-Link.com,2013-10-03 22:45:00,
2013-10-03 15:00:00,49.1,39.0,29.49,SW,225,3.7,-999.0,68,-99.99,,,0.00,Acu-Link.com,2013-10-03 23:00:00,
2013-10-03 15:15:00,50.0,39.1,29.49,West,270,4.2,-999.0,66,-99.99,,,0.00,Acu-Link.com,2013-10-03 23:15:00,
2013-10-03 15:30:00,49.6,38.7,29.48,WSW,247,4.2,-999.0,66,-99.99,,,0.00,Acu-Link.com,2013-10-03 23:30:00,
2013-10-03 15:45:00,49.3,39.2,29.47,SW,225,2.7,-999.0,68,-99.99,,,0.00,Acu-Link.com,2013-10-03 23:45:00,
2013-10-03 16:01:00,49.1,39.0,29.47,West,270,3.2,-999.0,68,-99.99,,,0.00,Acu-Link.com,2013-10-04 00:01:00,
2013-10-03 16:16:00,49.1,39.4,29.46,WSW,247,3.7,-999.0,69,-99.99,,,0.00,Acu-Link.com,2013-10-04 00:16:00,
2013-10-03 16:31:00,48.6,39.3,29.46,WSW,247,4.2,-999.0,70,-99.99,,,0.00,Acu-Link.com,2013-10-04 00:31:00,
2013-10-03 16:46:00,48.6,39.6,29.46,West,270,2.7,-999.0,71,-99.99,,,0.00,Acu-Link.com,2013-10-04 00:46:00,
2013-10-03 17:02:00,48.6,39.6,29.46,WSW,247,1.7,-999.0,71,-99.99,,,0.00,Acu-Link.com,2013-10-04 01:02:00,
2013-10-03 17:17:00,48.4,39.4,29.45,WSW,247,2.7,-999.0,71,-99.99,,,0.00,Acu-Link.com,2013-10-04 01:17:00,
2013-10-03 17:32:00,48.0,39.4,29.44,WSW,247,0.0,-999.0,72,-99.99,,,0.00,Acu-Link.com,2013-10-04 01:32:00,
2013-10-03 17:47:00,47.7,39.5,29.43,NW,315,1.7,-999.0,73,-99.99,,,0.00,Acu-Link.com,2013-10-04 01:47:00,
2013-10-03 18:03:00,46.9,39.4,29.44,WSW,247,0.0,-999.0,75,-99.99,,,0.00,Acu-Link.com,2013-10-04 02:03:00,
2013-10-03 18:18:00,45.9,38.8,29.44,South,180,2.2,-999.0,76,-99.99,,,0.00,Acu-Link.com,2013-10-04 02:18:00,
2013-10-03 18:33:00,45.0,38.9,29.43,South,180,2.2,-999.0,79,-99.99,,,0.00,Acu-Link.com,2013-10-04 02:33:00,
2013-10-03 18:48:00,44.1,39.0,29.43,South,180,2.7,-999.0,82,-99.99,,,0.00,Acu-Link.com,2013-10-04 02:48:00,
2013-10-03 19:03:00,42.8,38.0,29.43,SSW,202,2.2,-999.0,83,-99.99,,,0.00,Acu-Link.com,2013-10-04 03:03:00,
2013-10-03 19:19:00,41.5,37.6,29.43,SSW,202,0.0,-999.0,86,-99.99,,,0.00,Acu-Link.com,2013-10-04 03:19:00,
2013-10-03 19:34:00,40.3,37.0,29.42,South,180,0.0,-999.0,88,-99.99,,,0.00,Acu-Link.com,2013-10-04 03:34:00,
2013-10-03 19:49:00,39.2,36.5,29.43,SSE,157,2.7,-999.0,90,-99.99,,,0.00,Acu-Link.com,2013-10-04 03:49:00,
2013-10-03 20:37:00,37.9,36.3,29.42,SE,135,0.0,-999.0,94,-99.99,,,0.00,Acu-Link.com,2013-10-04 04:37:00,
2013-10-03 21:37:00,37.0,35.2,29.42,ESE,112,2.7,-999.0,93,-99.99,,,0.00,Acu-Link.com,2013-10-04 05:37:00,
2013-10-03 21:53:00,37.8,36.5,29.42,East,90,0.0,-999.0,95,-99.99,,,0.00,Acu-Link.com,2013-10-04 05:53:00,
2013-10-03 22:09:00,38.3,36.7,29.42,ENE,67,1.7,-999.0,94,-99.99,,,0.00,Acu-Link.com,2013-10-04 06:09:00,
2013-10-03 22:24:00,36.3,34.7,29.42,ENE,67,2.7,-999.0,94,-99.99,,,0.00,Acu-Link.com,2013-10-04 06:24:00,
2013-10-03 22:39:00,35.6,34.8,29.41,NNE,22,1.7,-999.0,97,-99.99,,,0.00,Acu-Link.com,2013-10-04 06:39:00,
2013-10-03 22:54:00,34.5,33.7,29.41,NNE,22,2.2,-999.0,97,-99.99,,,0.00,Acu-Link.com,2013-10-04 06:54:00,
2013-10-03 23:10:00,34.3,33.5,29.42,NW,315,0.0,-999.0,97,-99.99,,,0.00,Acu-Link.com,2013-10-04 07:10:00,
2013-10-03 23:25:00,34.3,33.5,29.42,NNW,337,2.7,-999.0,97,-99.99,,,0.00,Acu-Link.com,2013-10-04 07:25:00,
2013-10-03 23:40:00,34.3,33.3,29.41,NNE,22,3.2,-999.0,96,-99.99,,,0.00,Acu-Link.com,2013-10-04 07:40:00,
2013-10-03 23:55:00,34.5,33.5,29.41,NNE,22,3.7,-999.0,96,-99.99,,,0.00,Acu-Link.com,2013-10-04 07:55:00,